Location: New Plymouth
(39.0670°S, 174.0830°E)
Time: 17:14:36
(UTC+13:00)

ISS - Pass Details

Date: 08 December 2023
Orbit: 414 x 422 km, 51.6° (Epoch: 26 February)

Event Time Altitude Azimuth Distance (km) Brightness Sun altitude
Rises 03:44:40 0° 226° (SW) 2,437 0.2 -19.1°
Reaches altitude 10° 03:47:51 10° 195° (SSW) 1,556 -0.4 -18.7°
Maximum altitude 03:49:26 13° 168° (SSE) 1,404 -0.2 -18.5°
Drops below altitude 10° 03:51:01 10° 141° (SE) 1,546 0.4 -18.3°
Sets 03:54:09 0° 110° (ESE) 2,402 1.1 -18.0°
